Location: *
(44.3925°N, 5.4708°E)
Time: 15:13:02
(UTC+00:00)

H-2A R/B - Pass Details

Date: 18 September 2019
Orbit: 734 x 836 km, 98.3° (Epoch: 19 October)

Event Time Altitude Azimuth Distance (km) Brightness Sun altitude
Exits shadow 19:04:22 20° 133° (SE) 1,656 3.2 -14.9°
Maximum altitude 19:07:26 45° 70° (ENE) 1,005 2.3 -15.5°
Drops below altitude 10° 19:12:13 10° 358° (N) 2,293 4.7 -16.3°
Sets 19:14:37 0° 353° (N) 3,237 5.6 -16.7°
